www.pogodaiklimat.ru
ПОГОДА в Муонио Саммалтунтури
Время
(UTC), дата
01 25.10
02 25.10
03 25.10
04 25.10
05 25.10
06 25.10
07 25.10
08 25.10
09 25.10
10 25.10
11 25.10
12 25.10
13 25.10
14 25.10
15 25.10
16 25.10
17 25.10
18 25.10
19 25.10
20 25.10
21 25.10
22 25.10
23 25.10
00 26.10
01 26.10
02 26.10
03 26.10
04 26.10
05 26.10
06 26.10
07 26.10
08 26.10
09 26.10
10 26.10
11 26.10
12 26.10
13 26.10
14 26.10
15 26.10
16 26.10
17 26.10
18 26.10
19 26.10
20 26.10
21 26.10
22 26.10
23 26.10
00 27.10
01 27.10
02 27.10
03 27.10
04 27.10
05 27.10
06 27.10
07 27.10
08 27.10
09 27.10
10 27.10
11 27.10
12 27.10
13 27.10
14 27.10
15 27.10
16 27.10
17 27.10
18 27.10
19 27.10
20 27.10
21 27.10
22 27.10
23 27.10
00 28.10
01 28.10
02 28.10
03 28.10
04 28.10
05 28.10
06 28.10
07 28.10
08 28.10
09 28.10
10 28.10
11 28.10
12 28.10
13 28.10
14 28.10
15 28.10
16 28.10
17 28.10
18 28.10
19 28.10
20 28.10
21 28.10
22 28.10
23 28.10
00 29.10
01 29.10
02 29.10
03 29.10
04 29.10
05 29.10
06 29.10
07 29.10
08 29.10
09 29.10
10 29.10
11 29.10
12 29.10
13 29.10
14 29.10
15 29.10
16 29.10
17 29.10
18 29.10
19 29.10
20 29.10
21 29.10
22 29.10
23 29.10
00 30.10
01 30.10
02 30.10
03 30.10
04 30.10
05 30.10
06 30.10
07 30.10
08 30.10
09 30.10
10 30.10
11 30.10
12 30.10
13 30.10
14 30.10
15 30.10
16 30.10
17 30.10
18 30.10
19 30.10
20 30.10
21 30.10
22 30.10
23 30.10
00 31.10
01 31.10
02 31.10
03 31.10
04 31.10
05 31.10
06 31.10
07 31.10
08 31.10
09 31.10
10 31.10
11 31.10
12 31.10
13 31.10
14 31.10
15 31.10
16 31.10
17 31.10
18 31.10
19 31.10
20 31.10
21 31.10
22 31.10
23 31.10
00 1.11
Ветер
(напр.,м/с)
Видим. Явления Облачность Т
(С)
Тd
(С)
f
(%)
Тe
(С)
Тes
(С)
Комфортность P
(гПа)
Po
(гПа)
Тmin
(С)
Tmax
(С)
R
(мм)
R24
(мм)
S
(см)
С 6-7
{8}
300 м слаб. снег н/о -2.1 -2.1 100 -10 -10 1002.9 934.9
СВ 6-7
{7}
600 м туман н/о -2.1 -2.1 100 -10 -10 1003.4 935.4
СВ 4-6
{8}
300 м сильная пыльная буря {туман} н/о -2.3 -2.3 100 -9 -9 1004.1 936.0
С 3-5
{6}
200 м слаб. снег н/о -2.5 -2.5 100 -8 -8 1004.6 936.4
СВ 4-5
{5}
200 м слаб. ливневой снег н/о -2.5 -2.5 100 -9 -9 1004.9 936.7
СВ 4-6
{6}
200 м пыльная буря {ливн. снег, снег} н/о -2.5 -2.5 100 -9 -9 1005.6 937.3 -2.6 -1.5
СВ 4-5
{6}
100 м туман н/о -2.4 -2.4 100 -9 -9 1006.0 937.7
СВ 3-4
{4}
100 м туман н/о -2.2 -2.3 99 -8 -8 1006.8 938.5
СВ 1-2
{3}
100 м снег {ливн. снег} н/о -1.8 -1.8 100 -4 -4 1007.1 939.0
СВ 2-3
{3}
200 м слаб. снег н/о -1.4 -1.4 100 -6 -6 1006.8 938.8
В 3-4
{5}
100 м слаб. снег н/о -1.3 -1.3 100 -7 -7 1007.4 939.3
Ю 2-2
{4}
100 м ливневой дождь {снег} н/о -1.6 -1.6 100 -6 -6 1007.5 939.3
Ю 5-6
{7}
400 м слаб. снег н/о -2.0 -2.0 100 -9 -9 1007.8 939.5
Ю 5-7
{8}
40 км в посл. час снег н/о -2.6 -2.6 100 -10 -10 1008.1 939.6
ЮВ 6-8
{8}
200 м слаб. снег н/о -2.7 -2.7 100 -10 -10 1008.2 939.7
ЮВ 7-8
{10}
200 м слаб. снег н/о -3.2 -3.2 100 -11 -11 1007.7 939.1
ЮВ 7-9
{9}
100 м снег н/о -3.2 -3.2 100 -11 -11 1007.1 938.5
ЮВ 8-10
{11}
100 м снежные зёрна {ливн. снег} н/о -2.8 -2.8 100 -11 -11 1007.1 938.7 -3.3 -1.3
ЮВ 8-10
{11}
200 м сильн. снег н/о -2.7 -2.7 100 -11 -11 1006.9 938.5
ЮВ 9-11
{12}
300 м снег н/о -2.6 -2.6 100 -12 -12 1006.1 937.8
ЮВ 11-14
{15}
500 м слаб. снег н/о -2.8 -2.8 100 -12 -12 1004.9 936.6
ЮВ 12-15
{17}
400 м слаб. снег н/о -2.8 -2.8 100 -13 -13 1004.4 936.2
ЮВ 14-17
{18}
300 м снег н/о -2.9 -2.9 100 -13 -13 1002.3 934.2
ЮВ 16-20
{21}
400 м снег н/о -2.8 -2.9 99 -14 -14 1001.7 933.6
ЮВ 16-20
{21}
700 м слаб. снег н/о -2.8 -2.8 100 -14 -14 1000.0 932.1
ЮВ 15-19
{21}
300 м снег н/о -2.8 -2.8 100 -14 -14 999.5 931.5
ЮВ 14-18
{20}
400 м снег н/о -2.7 -2.7 100 -13 -13 999.0 931.2
ЮВ 13-17
{17}
400 м снег н/о -2.5 -2.5 100 -13 -13 998.3 930.5
ЮВ 11-15
{17}
300 м снег н/о -2.0 -2.0 100 -11 -11 998.6 930.9
ЮВ 9-12
{14}
200 м снег н/о -1.6 -1.6 100 -10 -10 998.2 930.7 -2.9 -1.6
Ю 8-10
{13}
100 м снежные зёрна н/о -1.3 -1.3 100 -9 -9 998.3 930.8
Ю 6-9
{10}
200 м снежные зёрна н/о -0.9 -0.9 100 -8 -8 998.6 931.2
Ю 7-10
{10}
100 м снежные зёрна н/о -0.5 -0.5 100 -8 -8 998.5 931.2
Ю 6-9
{10}
200 м снежные зёрна н/о -0.2 -0.2 100 -7 -7 998.3 931.1
Ю 6-8
{9}
200 м слаб. снег н/о 0.0 0.0 100 -7 -7 998.3 931.2
Ю 6-7
{8}
200 м слаб. снег н/о 0.0 0.0 100 -7 -7 998.3 931.2
Ю 6-7
{7}
200 м слаб. снег н/о 0.0 0.0 100 -7 -7 998.2 931.1
Ю 7-9
{9}
200 м слаб. снег н/о 0.0 0.0 100 -7 -7 998.4 931.3
Ю 7-9
{9}
200 м слаб. снег н/о 0.0 0.0 100 -7 -7 998.4 931.2
ЮЗ 6-8
{9}
100 м снежные зёрна н/о -0.3 -0.3 100 -7 -7 998.6 931.4
ЮЗ 6-7
{8}
100 м слаб. снег н/о -0.7 -0.7 100 -8 -8 998.8 931.4
ЮЗ 7-8
{8}
100 м снежные зёрна н/о -1.0 -1.0 100 -9 -9 999.2 931.7 -1.6 0.0
ЮЗ 6-7
{8}
100 м слаб. снег н/о -1.1 -1.1 100 -8 -8 999.8 932.2
ЮЗ 7-9
{9}
100 м снег н/о -1.1 -1.1 100 -9 -9 1000.1 932.5
Ю 7-8
{8}
100 м снежные зёрна н/о -1.1 -1.1 100 -9 -9 1000.3 932.7
ЮЗ 6-7
{8}
100 м сильн. снег н/о -1.2 -1.2 100 -8 -8 1000.6 933.0
ЮЗ 7-9
{10}
100 м слаб. снег н/о -1.2 -1.2 100 -9 -9 1001.1 933.5
ЮЗ 7-9
{9}
100 м снежные зёрна н/о -1.4 -1.4 100 -9 -9 1001.3 933.5
ЮЗ 8-10
{10}
100 м снежные зёрна н/о -1.7 -1.7 100 -10 -10 1001.5 933.7
ЮЗ 7-10
{10}
100 м снежные зёрна н/о -1.3 -1.3 100 -9 -9 1001.3 933.6
ЮЗ 8-10
{11}
100 м снежные зёрна н/о -0.9 -0.9 100 -9 -9 1001.3 933.7
ЮЗ 8-12
{12}
100 м снежные зёрна н/о -0.7 -0.8 99 -9 -9 1001.1 933.6
ЮЗ 9-11
{12}
100 м снежные зёрна н/о -0.9 -0.9 100 -9 -9 1000.9 933.3
ЮЗ 9-11
{11}
100 м снежные зёрна н/о -0.7 -0.7 100 -9 -9 1000.9 933.4 -1.8 -0.7
ЮЗ 8-10
{11}
100 м снежные зёрна н/о -0.8 -0.8 100 -9 -9 1001.1 933.5
ЮЗ 6-8
{9}
<100 м слаб. снег н/о -0.8 -0.8 100 -8 -8 1001.1 933.5
ЮЗ 6-8
{9}
100 м снежные зёрна н/о -0.6 -0.6 100 -8 -8 1000.6 933.1
Ю 6-8
{8}
100 м снежные зёрна н/о -0.3 -0.4 99 -7 -7 1000.1 932.7
Ю 5-7
{8}
100 м снежные зёрна н/о -0.4 -0.4 100 -7 -7 999.6 932.3
Ю 4-5
{7}
100 м слаб. снег н/о -0.3 -0.3 100 -6 -6 998.7 931.4
Ю 4-5
{6}
11 км слаб. дождь н/о 0.0 0.0 100 -6 -6 997.6 930.4
В 2-3
{4}
400 м слаб. дождь н/о 0.0 0.0 100 -4 -4 996.3 929.3
В 6-7
{7}
200 м снег {дождь} н/о 0.0 0.0 100 -7 -7 995.0 928.1
СВ 7-8
{8}
200 м снег н/о 0.0 0.0 100 -7 -7 993.3 926.5
СВ 8-9
{10}
200 м снег н/о -0.5 -0.5 100 -8 -8 991.9 925.0
СВ 7-8
{10}
200 м переохл. дождь (гололёд) {снег} н/о -0.3 -0.3 100 -8 -8 991.0 924.3 -0.8 0.0
С 5-6
{8}
400 м снег н/о -0.4 -0.4 100 -7 -7 990.8 924.0
СЗ 8-10
{10}
100 м сильн. снег н/о -0.9 -0.9 100 -9 -9 991.3 924.3
З 9-11
{12}
100 м снег {дождь} н/о -1.3 -1.3 100 -10 -10 992.3 925.2
З 8-9
{11}
100 м сильн. снег н/о -1.6 -1.6 100 -10 -10 993.3 926.1
ЮЗ 7-9
{9}
100 м сильн. снег н/о -1.1 -1.1 100 -9 -9 993.7 926.6
ЮЗ 7-8
{9}
100 м снежные зёрна {дождь} н/о -0.9 -0.9 100 -9 -9 994.0 926.9
ЮЗ 7-9
{10}
100 м снежные зёрна н/о -1.1 -1.1 100 -9 -9 994.1 926.9
ЮЗ 9-11
{11}
100 м сильн. снег н/о -1.6 -1.6 100 -10 -10 993.7 926.5
ЮЗ 8-10
{10}
100 м слаб. снег н/о -1.9 -1.9 100 -10 -10 993.7 926.4
ЮЗ 8-10
{10}
200 м слаб. снег н/о -2.0 -2.0 100 -10 -10 993.6 926.3
З 6-8
{9}
200 м слаб. снег н/о -1.8 -1.8 100 -9 -9 993.7 926.4
ЮЗ 6-7
{8}
200 м слаб. снег н/о -1.9 -1.9 100 -9 -9 994.0 926.7 -2.1 -0.3
З 5-6
{7}
100 м сильн. снег н/о -1.7 -1.7 100 -8 -8 994.0 926.7
ЮЗ 5-6
{6}
100 м сильн. снег н/о -1.4 -1.4 100 -8 -8 994.2 927.0
ЮЗ 6-7
{7}
100 м снег н/о -1.1 -1.1 100 -8 -8 994.2 927.0
З 6-7
{7}
100 м слаб. снег н/о -0.8 -0.8 100 -8 -8 994.1 927.0
ЮЗ 6-7
{8}
100 м сильн. снег н/о -0.8 -0.8 100 -8 -8 994.5 927.4
ЮЗ 6-8
{8}
100 м слаб. снег н/о -0.8 -0.8 100 -8 -8 994.8 927.7
ЮЗ 6-9
{9}
100 м слаб. снег н/о -1.3 -1.3 100 -9 -9 995.2 927.9
ЮЗ 6-7
{10}
100 м сильн. снег н/о -1.1 -1.1 100 -8 -8 995.4 928.2
ЮЗ 4-5
{7}
100 м слаб. снег н/о -0.9 -0.9 100 -7 -7 995.5 928.3
Ю 6-7
{8}
100 м слаб. снег н/о -0.4 -0.4 100 -7 -7 995.4 928.4
Ю 6-8
{9}
<100 м сильн. снег н/о -0.1 -0.1 100 -7 -7 995.8 928.8
ЮЗ 7-9
{9}
<100 м снежные зёрна н/о -0.1 -0.1 100 -8 -8 995.9 928.9 -1.9 -0.1
ЮЗ 7-9
{9}
<100 м сильн. снег н/о -0.1 -0.1 100 -8 -8 996.1 929.1
ЮЗ 6-7
{9}
<100 м сильн. снег н/о 0.0 0.0 100 -7 -7 995.5 928.5
ЮЗ 6-7
{8}
<100 м снежные зёрна н/о -0.1 -0.1 100 -7 -7 995.6 928.6
ЮЗ 5-7
{7}
<100 м снежные зёрна н/о 0.0 0.0 100 -6 -6 995.1 928.2
ЮЗ 5-7
{8}
<100 м сильн. снег н/о 0.0 0.0 100 -6 -6 995.1 928.1
ЮЗ 5-7
{7}
100 м слаб. снег н/о 0.0 0.0 100 -6 -6 994.4 927.5
Ю 5-6
{8}
<100 м сильн. снег н/о 0.0 0.0 100 -6 -6 993.7 926.8
Ю 4-5
{7}
100 м слаб. снег н/о 0.0 0.0 100 -6 -6 993.1 926.3
Ю 4-5
{5}
100 м снежные зёрна н/о 0.0 0.0 100 -6 -6 992.3 925.5
Ю 3-3
{5}
100 м слаб. дождь н/о 0.0 0.0 100 -5 -5 991.9 925.2
З 3-3
{4}
100 м слаб. дождь н/о +0.1 +0.1 100 -5 -5 991.6 924.9
З 5-5
{5}
100 м снежные зёрна {дождь} н/о +0.2 +0.2 100 -6 -6 991.6 924.9 -0.1 +0.3
З 5-6
{6}
100 м снежные зёрна н/о -0.1 -0.1 100 -7 -7 992.1 925.4
З 5-6
{7}
<100 м сильн. снег н/о -0.3 -0.3 100 -7 -7 992.7 925.8
З 5-5
{6}
<100 м снежные зёрна н/о -0.6 -0.6 100 -7 -7 993.2 926.3
З 6-7
{7}
100 м сильн. снег н/о -1.5 -1.5 100 -9 -9 993.8 926.6
З 7-9
{9}
100 м сильн. снег н/о -1.6 -1.6 100 -9 -9 994.6 927.3
СЗ 5-6
{9}
200 м снежные зёрна н/о -2.5 -2.6 99 -9 -9 995.7 928.1
СЗ 2-3
{5}
100 м слаб. снег н/о -2.7 -2.7 100 -7 -7 996.4 928.7
З 3-4
{4}
200 м слаб. ливневой снег н/о -3.6 -3.6 100 -9 -9 997.3 929.4
С 5-7
{7}
50 км в посл. час переохл. осадки (гололёд) н/о -3.1 -3.2 99 -10 -10 998.1 930.2
СВ 6-8
{8}
50 км н/о -2.5 -2.6 99 -10 -10 998.5 930.7
С 6-7
{8}
8000 м слаб. снег н/о -2.4 -2.5 99 -10 -10 999.3 931.5
СЗ 4-5
{8}
7000 м слаб. снег н/о -2.3 -2.6 98 -8 -8 1000.0 932.2 -3.7 +0.2
СЗ 4-5
{6}
200 м ливневой дождь н/о -3.5 -3.9 97 -10 -10 1001.1 932.9
З 6-6
{6}
2100 м в посл. час снег н/о -3.1 -3.1 100 -11 -11 1001.5 933.4
СЗ 7-8
{8}
200 м снежные зёрна {ливн. снег} н/о -4.0 -4.2 99 -12 -12 1002.4 934.0
СЗ 8-9
{10}
45 км в посл. час зёрна н/о -4.8 -5.3 96 -14 -14 1003.3 934.6
СЗ 8-10
{12}
50 км н/о -5.6 -6.3 95 -15 -15 1004.3 935.4
СЗ 6-8
{10}
50 км {ливн. снег, снег} н/о -5.7 -6.3 96 -14 -14 1005.6 936.5
СЗ 6-8
{10}
50 км н/о -5.7 -6.4 95 -14 -14 1006.4 937.3
СЗ 7-11
{11}
50 км н/о -6.2 -6.9 95 -15 -15 1007.5 938.2
СЗ 7-8
{11}
50 км н/о -6.7 -7.5 94 -15 -15 1008.6 939.1
СЗ 8-10
{10}
50 км н/о -6.9 -7.7 94 -16 -16 1009.5 939.9
СЗ 7-8
{9}
50 км н/о -7.2 -8.1 93 -16 -16 1010.5 940.8
СЗ 7-9
{10}
50 км н/о -7.2 -8.1 93 -16 -16 1011.6 941.8 -7.2 -2.3
СЗ 7-8
{10}
50 км н/о -6.8 -7.8 93 -16 -16 1012.6 942.8
СЗ 7-10
{10}
50 км н/о -6.6 -7.7 92 -15 -15 1013.4 943.5
СЗ 6-7
{10}
35 км н/о -6.4 -7.8 90 -15 -15 1014.1 944.3
С 4-6
{8}
35 км н/о -5.2 -6.6 90 -12 -12 1014.7 945.1
СЗ 4-6
{9}
35 км н/о -4.2 -5.7 89 -11 -11 1015.3 946.0
СЗ 6-7
{7}
30 км н/о -5.2 -6.5 91 -13 -13 1016.2 946.5
С 8-9
{9}
50 км н/о -4.9 -5.9 93 -14 -14 1016.6 947.0
С 4-5
{9}
45 км н/о -4.8 -5.9 92 -11 -11 1017.0 947.4
СЗ 3-4
{5}
45 км н/о -5.6 -6.6 93 -11 -11 1017.8 948.0
СЗ 4-5
{6}
50 км н/о -5.3 -6.3 93 -12 -12 1018.4 948.6
СЗ 3-4
{5}
50 км н/о -5.4 -6.4 93 -11 -11 1018.5 948.7
СЗ 2-4
{5}
50 км н/о -5.3 -6.4 92 -10 -10 1018.8 948.9 -7.2 -4.0
С 3-4
{4}
50 км н/о -5.0 -6.2 91 -11 -11 1019.1 949.3
СВ 2-2
{4}
50 км н/о -4.9 -5.9 93 -9 -9 1019.5 949.7
Ю 2-3
{3}
50 км н/о -4.6 -6.2 89 -9 -9 1019.5 949.8
Ю 4-4
{5}
50 км н/о -5.4 -6.9 89 -12 -12 1020.1 950.1
ЮВ 5-7
{7}
45 км н/о -5.4 -6.7 91 -13 -13 1019.8 949.9
Ю 5-8
{8}
45 км н/о -5.8 -7.0 91 -13 -13 1020.0 949.9
Ю 6-7
{8}
50 км н/о -6.5 -7.4 93 -15 -15 1020.3 950.1
Ю 6-8
{9}
50 км н/о -7.0 -7.9 93 -15 -15 1020.3 950.0
Ю 7-9
{10}
45 км н/о -7.2 -8.0 94 -16 -16 1020.1 949.7
Ю 9-11
{11}
24 км н/о -7.3 -8.1 94 -17 -17 1019.6 949.2
Ю 8-10
{12}
40 км н/о -7.7 -8.4 95 -17 -17 1019.5 949.0
Ю 9-11
{12}
800 м сильная пыльная буря н/о -8.0 -8.7 95 -18 -18 1019.4 948.8 -8.1 -4.6
Ю 10-13
{15}
200 м слаб. снег н/о -6.8 -7.3 96 -17 -17 1018.8 948.5
Ю 11-14
{15}
100 м слаб. снег н/о -5.4 -5.9 96 -16 -16 1018.6 948.7
Ю 10-14
{15}
100 м слаб. снег {метель} н/о -5.2 -5.6 97 -15 -15 1018.7 948.9
ЮЗ 11-15
{15}
100 м слаб. снег н/о -4.5 -4.8 98 -15 -15 1018.3 948.7
ЮЗ 10-14
{15}
100 м слаб. снег н/о -4.0 -4.2 99 -14 -14 1018.3 948.8
ЮЗ 10-13
{13}
100 м слаб. снег {метель} н/о -3.5 -3.6 99 -13 -13 1018.2 948.8
ЮЗ 11-15
{15}
100 м слаб. снег н/о -3.3 -3.3 100 -13 -13 1017.9 948.6
ЮЗ 11-13
{14}
100 м сильн. снег н/о -3.2 -3.2 100 -13 -13 1017.7 948.4
ЮЗ 9-11
{13}
200 м снег н/о -3.0 -3.0 100 -12 -12 1018.1 948.8
ЮЗ 9-11
{12}
100 м снег н/о -2.8 -2.8 100 -12 -12 1018.2 949.0
ЮЗ 8-10
{11}
100 м слаб. снег н/о -2.7 -2.7 100 -11 -11 1018.3 949.1
ЮЗ 8-9
{10}
100 м снежные зёрна н/о -2.7 -2.7 100 -11 -11 1018.2 949.0 -8.1 -2.6
ЮЗ 8-9
{10}
100 м снежные зёрна н/о -2.8 -2.8 100 -11 -11 1018.3 949.1
ЮЗ 7-9
{10}
<100 м снежные зёрна н/о -3.0 -3.0 100 -11 -11 1018.5 949.2
ЮЗ 7-9
{9}
100 м снежные зёрна н/о -3.0 -3.0 100 -11 -11 1018.4 949.2
ЮЗ 6-8
{9}
100 м снежные зёрна н/о -3.1 -3.1 100 -11 -11 1018.0 948.8
ЮЗ 8-9
{9}
100 м снежные зёрна н/о -3.1 -3.1 100 -12 -12 1018.0 948.8
ЮЗ 8-9
{10}
100 м снежные зёрна н/о -3.0 -3.0 100 -12 -12 1017.9 948.7
Местоположение метеостанции Муонио Саммалтунтури (Финляндия): широта 67.97 долгота 24.12 высота над уровнем моря 565 м.
В архиве по умолчанию представлена погода в Муонио Саммалтунтури за последнюю неделю. Архивные данные за месяц целиком и за предыдущие месяцы, начиная с января 2011 года, Вы можете получить, выбрав интересующий диапазон дат из раскрывающегося списка и нажав кнопку "Найти!".
*Определитесь, кто Вы:
Внимание! Время в таблицах - всемирное. Для получения местного времени необходимо прибавить поправку, которая равна 1 ч.
Смотрите также архив погоды в соседних городах и на ближайших метеорологических станциях:
Партнеры нашего сайта:      
Пояснения к столбцам:
  • Ветер - указаны скорость ветра в м/с - средняя за 10 мин, порывы в срок и между сроками (в фигурных скобках) и направление, откуда дует ветер: С - северный,
  • СВ - северо-восточный, В - восточный, ЮВ - юго-восточный, Ю - южный, ЮЗ - юго-западный, З - западный, СЗ - северо-западный.
  • Видимость - горизонтальная дальность видимости в метрах или километрах. При видимости от 1 до 10 км при отсутствии осадков обычно наблюдается дымка, при ухудшении видимости до 1 км и менее - туман. В сухую погоду видимость может ухудшаться дымом, пылью или мглою.
  • Явления - указаны атмосферные явления, наблюдавшиеся в срок или в последний час перед сроком; фигурными скобками обозначены явления, наблюдавшиеся между сроками (за 1-3 часа до срока); квадратными скобками обозначены град или гололедные отложения с указанием их диаметра в мм.
  • Облачность - указаны через наклонную черту общая и нижняя облачность в баллах и высота нижней границы облаков в метрах; квадратными скобками обозначены формы облаков: Ci - перистые, Cs - перисто-слоистые, Cc - перисто-кучевые, Ac - высококучевые, As - высокослоистые, Sc - слоисто-кучевые, Ns - слоисто-дождевые, Cu - кучевые, Cb - кучево-дождевые. Подробнее классификацию облаков см. в Атласе облаков (PDF).
  • T - Температура воздуха - температура, измеренная на высоте 2 м над землей.
  • Td - Температура точки росы - температура, при понижении до которой содержащийся в воздухе водяной пар достигнет насыщения.
  • f - Относительная влажность воздуха - влажноcть воздуха, измеренная на высоте 2 м над землей.
  • Te - Эффективная температура - температура, которую ощущает одетый по сезону человек в тени. Характеристика душности погоды. При расчете учитывается влияние влажности воздуха и скорости ветра на теплоощущения человека.
  • Tes - Эффективная температура на солнце - температура, которую ощущает человек, с поправкой на солнечный нагрев. Характеристика знойности погоды. Зависит от высоты солнца над горизонтом, облачности и скорости ветра. Ночью, в пасмурную погоду, а также при ветре 12 м/с и более поправка равна нулю.
  • P - Атмосферное давление - приведенное к уровню моря атмосферное давление.
  • Po - Атмосферное давление - измеренное на уровне метеостанции атмосферное давление.
  • Tmin - Минимальная температура - минимум температуры воздуха на высоте 2 м над землей.
  • Tmax - Максимальная температура - максимум температуры воздуха на высоте 2 м над землей.
  • R - Количество осадков - Количество выпавших осадков за период времени, мм. При наведении курсора мыши на число - период времени, за который выпало указанное количество осадков.
  • R24 - Количество осадков - Количество выпавших осадков за 24 часа, мм.
  • S - Снежный покров - Высота снежного покрова, см. При наведении курсора мыши на число - состояние снежного покрова и степень покрытия местности в баллах.